Weather History for Fort Yukon, AK

Change the Weather History Date:

Friday, December 6, 2013

  Actual Average Record
Temperature  
Mean Temperature -7 °F -  
Max Temperature 8 °F -3 °F 17 °F (2006)
Min Temperature -22 °F -15 °F -45 °F (2004)
Degree Days  
Heating Degree Days 72    
Moisture  
Dew Point -6 °F    
Average Humidity 78    
Maximum Humidity 100    
Minimum Humidity 52    
Precipitation  
Precipitation 0.08 in - - ()
Sea Level Pressure  
Sea Level Pressure 30.41 in    
Wind  
Wind Speed 1 mph (NE)    
Max Wind Speed 6 mph    
Max Gust Speed -    
Visibility 5 miles    
Events      
Averages and records for this station are not official NWS values.
T = Trace of Precipitation, MM = Missing Value Source: NWS Daily Summary

Daily Weather History Graph

Daily Weather History Graph

Search for Another Location

Airport:

Trip Planner

Search our weather history database for the weather conditions in past years. The results will help you decide how hot, cold, wet, or windy it might be!

Date:

Astronomy

Dec. 06, 2013 Rise Set
Actual Time 10:59 AM AKST 2:04 PM AKST
Civil Twilight 9:21 AM AKST 3:42 PM AKST
Nautical Twilight 8:04 AM AKST 4:59 PM AKST
Astronomical Twilight 6:59 AM AKST 6:05 PM AKST
Moon 12:29 PM AKST (12/6) 8:38 PM AKST (12/6)
Length of Visible Light 6h 20m
Length of Day
3h 04m
Waxing Crescent, 20% of the Moon is Illuminated
Dec 6
Waxing Crescent
Dec 9
First Quarter
Dec 17
Full
Dec 25
Last Quarter
Jan 1
New

Hourly Weather History & Observations

Time (AKST) Temp. Windchill Dew Point Humidity Pressure Visibility Wind Dir Wind Speed Gust Speed Precip Events Conditions
12:16 AM -9.4 °F - -16.6 °F 71% 30.50 in 10.0 mi Calm Calm - N/A   Overcast
12:36 AM -7.6 °F - -14.8 °F 71% 30.50 in 7.0 mi Calm Calm - N/A   Overcast
12:56 AM -7.6 °F - -16.6 °F 65% 30.49 in 8.0 mi Calm Calm - N/A   Overcast
1:16 AM -7.6 °F - -14.8 °F 71% 30.50 in 6.0 mi Calm Calm - N/A   Overcast
1:36 AM -7.6 °F - -14.8 °F 71% 30.51 in 3.0 mi Calm Calm - N/A   Overcast
1:56 AM -7.6 °F - -14.8 °F 71% 30.51 in 5.0 mi Calm Calm - N/A   Overcast
2:16 AM -7.6 °F - -14.8 °F 71% 30.50 in 3.0 mi Calm Calm - N/A   Overcast
2:36 AM -5.8 °F - -13.0 °F 71% 30.51 in 1.5 mi Calm Calm - N/A   Overcast
2:56 AM -5.8 °F - -13.0 °F 71% 30.49 in 2.5 mi Calm Calm - N/A   Overcast
3:16 AM -5.8 °F - -11.2 °F 77% 30.48 in 2.0 mi Calm Calm - N/A   Overcast
3:36 AM -5.8 °F - -11.2 °F 77% 30.47 in 5.0 mi Calm Calm - N/A   Overcast
4:16 AM -5.8 °F - -11.2 °F 77% 30.47 in 5.0 mi Calm Calm - N/A   Overcast
4:36 AM -5.8 °F - -11.2 °F 77% 30.47 in 2.0 mi Calm Calm - N/A   Overcast
4:56 AM -5.8 °F - -11.2 °F 77% 30.47 in 2.0 mi Calm Calm - N/A   Overcast
5:16 AM -4.0 °F - -9.4 °F 78% 30.46 in 3.0 mi Calm Calm - N/A   Overcast
5:36 AM -4.0 °F - -9.4 °F 78% 30.46 in 2.5 mi Calm Calm - N/A   Overcast
5:56 AM -4.0 °F - -9.4 °F 78% 30.45 in 3.0 mi Calm Calm - N/A   Overcast
6:16 AM -4.0 °F - -9.4 °F 78% 30.45 in 3.0 mi Calm Calm - N/A   Overcast
6:36 AM -2.2 °F - -9.4 °F 71% 30.45 in 2.5 mi Calm Calm - N/A   Overcast
6:56 AM -2.2 °F - -9.4 °F 71% 30.45 in 2.5 mi Calm Calm - N/A   Overcast
7:16 AM -2.2 °F - -7.6 °F 78% 30.44 in 2.5 mi Calm Calm - N/A   Overcast
7:36 AM -2.2 °F - -9.4 °F 71% 30.43 in 8.0 mi Calm Calm - N/A   Overcast
7:56 AM -2.2 °F - -7.6 °F 78% 30.42 in 6.0 mi Calm Calm - N/A   Overcast
8:16 AM -2.2 °F - -7.6 °F 78% 30.42 in 3.0 mi Calm Calm - N/A   Overcast
8:36 AM -2.2 °F - -7.6 °F 78% 30.42 in 5.0 mi Calm Calm - N/A   Overcast
8:56 AM -2.2 °F -10.4 °F -7.6 °F 78% 30.43 in 10.0 mi NNE 3.5 mph - N/A   Overcast
9:36 AM -2.2 °F - -7.6 °F 78% 30.41 in 5.0 mi Calm Calm - N/A   Overcast
9:56 AM -2.2 °F - -7.6 °F 78% 30.42 in 3.0 mi Calm Calm - N/A   Overcast
10:16 AM -0.4 °F - -7.6 °F 72% 30.42 in 1.5 mi Calm Calm - N/A   Overcast
10:36 AM -0.4 °F - -7.6 °F 72% 30.41 in 1.2 mi Calm Calm - N/A   Overcast
10:56 AM -0.4 °F - -5.8 °F 78% 30.41 in 3.0 mi Calm Calm - N/A   Overcast
11:16 AM -0.4 °F -8.3 °F -5.8 °F 78% 30.42 in 7.0 mi NE 3.5 mph - N/A   Overcast
11:36 AM -0.4 °F - -5.8 °F 78% 30.41 in 10.0 mi Calm Calm - N/A   Overcast
11:56 AM -0.4 °F - -5.8 °F 78% 30.42 in 10.0 mi Calm Calm - N/A   Overcast
12:16 PM -0.4 °F -8.3 °F -5.8 °F 78% 30.42 in 10.0 mi NE 3.5 mph - N/A   Overcast
12:36 PM -0.4 °F - -5.8 °F 78% 30.41 in 10.0 mi Calm Calm - N/A   Overcast
12:56 PM -0.4 °F - -5.8 °F 78% 30.41 in 10.0 mi Calm Calm - N/A   Overcast
1:16 PM 1.4 °F - -4.0 °F 78% 30.42 in 10.0 mi Calm Calm - N/A   Overcast
1:36 PM 1.4 °F - -4.0 °F 78% 30.42 in 10.0 mi Calm Calm - N/A   Overcast
1:56 PM 1.4 °F - -4.0 °F 78% 30.41 in 10.0 mi Calm Calm - N/A   Overcast
2:16 PM 1.4 °F - -4.0 °F 78% 30.42 in 10.0 mi Calm Calm - N/A   Overcast
2:36 PM 1.4 °F - -4.0 °F 78% 30.41 in 10.0 mi Calm Calm - N/A   Overcast
2:56 PM 1.4 °F - -4.0 °F 78% 30.41 in 10.0 mi Calm Calm - N/A   Overcast
3:16 PM 1.4 °F -6.2 °F -4.0 °F 78% 30.41 in 10.0 mi NNE 3.5 mph - N/A   Overcast
3:36 PM 1.4 °F -6.2 °F -4.0 °F 78% 30.41 in 10.0 mi NE 3.5 mph - N/A   Overcast
3:56 PM 1.4 °F -8.3 °F -4.0 °F 78% 30.40 in 10.0 mi NE 4.6 mph - N/A   Overcast
4:16 PM 1.4 °F -6.2 °F -4.0 °F 78% 30.40 in 9.0 mi NE 3.5 mph - N/A   Overcast
4:36 PM 1.4 °F -8.3 °F -4.0 °F 78% 30.39 in 3.0 mi ENE 4.6 mph - N/A   Overcast
4:56 PM 1.4 °F -6.2 °F -4.0 °F 78% 30.40 in 3.0 mi NE 3.5 mph - N/A   Overcast
5:16 PM 1.4 °F -6.2 °F -4.0 °F 78% 30.39 in 3.0 mi NE 3.5 mph - N/A   Overcast
5:36 PM 1.4 °F -8.3 °F -2.2 °F 85% 30.38 in 3.0 mi NE 4.6 mph - N/A   Overcast
5:56 PM 1.4 °F -8.3 °F -2.2 °F 85% 30.38 in 3.0 mi NNE 4.6 mph - N/A   Overcast
6:16 PM 1.4 °F -8.3 °F -4.0 °F 78% 30.38 in 1.5 mi NE 4.6 mph - N/A   Overcast
6:36 PM 1.4 °F -6.2 °F -2.2 °F 85% 30.38 in 1.5 mi NNE 3.5 mph - N/A   Overcast
6:56 PM 1.4 °F -9.9 °F -4.0 °F 78% 30.37 in 1.5 mi NE 5.8 mph - N/A   Overcast
7:16 PM 1.4 °F -8.3 °F -2.2 °F 85% 30.37 in 1.2 mi NE 4.6 mph - 0.01 in   Overcast
7:36 PM 1.4 °F -9.9 °F -2.2 °F 85% 30.36 in 1.8 mi NE 5.8 mph - 0.01 in   Overcast
7:56 PM 1.4 °F -9.9 °F -2.2 °F 85% 30.36 in 1.5 mi NNE 5.8 mph - 0.02 in   Overcast
8:16 PM 3.2 °F -4.2 °F -2.2 °F 78% 30.35 in 1.2 mi NNE 3.5 mph - 0.01 in   Overcast
8:36 PM 3.2 °F -4.2 °F -2.2 °F 78% 30.34 in 1.5 mi NE 3.5 mph - 0.02 in   Overcast
8:56 PM 3.2 °F -4.2 °F -0.4 °F 85% 30.33 in 1.5 mi NE 3.5 mph - 0.03 in   Overcast
9:16 PM 5.0 °F -2.1 °F 1.4 °F 85% 30.32 in 1.2 mi NNE 3.5 mph - 0.01 in   Overcast
9:36 PM 6.8 °F - 1.4 °F 79% 30.32 in 1.2 mi Calm Calm - 0.02 in   Overcast
9:56 PM 6.8 °F -0.1 °F 5.0 °F 92% 30.32 in 1.2 mi North 3.5 mph - 0.04 in   Overcast
10:16 PM 6.8 °F -0.1 °F 6.8 °F 100% 30.31 in 1.5 mi North 3.5 mph - 0.01 in   Overcast
10:36 PM 8.6 °F 2.0 °F -5.8 °F 52% 30.30 in 1.8 mi North 3.5 mph - 0.02 in   Overcast
10:56 PM 8.6 °F - 8.6 °F 100% 30.30 in 1.5 mi Calm Calm - 0.03 in   Overcast
11:16 PM 8.6 °F - 8.6 °F 100% 30.29 in 1.5 mi Calm Calm - 0.01 in   Overcast
11:36 PM 8.6 °F 2.0 °F 6.8 °F 92% 30.30 in 3.0 mi North 3.5 mph - 0.01 in   Overcast
11:56 PM 8.6 °F 2.0 °F 5.0 °F 85% 30.30 in 7.0 mi North 3.5 mph - 0.01 in   Overcast